Volver al catálogo

COSMOS 1818 COOLANT

LostLEO
NORAD 50779·DEBRIS·🇷🇺 Russia

Lanzado Feb 1, 1987 desde Baikonur Cosmodrome

Loading…

Próximos Pases (próximas 24 horas)

TLE

ObsoletoSource: Space-Track

Época: Sep 1, 2022, 08:12 UTC

1 50779U 87011AU  22244.34231889  .00000224  00000-0  11619-3 0  9996
2 50779  65.0145 144.6150 0016555 259.7982 100.1237 14.33908643218888

Sigue COSMOS 1818 COOLANT en tiempo real con AllMySat

Download on the App Store